Temperature
17 16 16 16 16 16 16 16 16 16 15 15 15 15 15 15 15 15 15 14 14 14 14 14 14 14 14 14 14 14 14 14 14 14 14 14 14 14 14 14 14 14 13
17 16 16 16 16 16 16 16 16 16 15 15 15 15 15 15 15 15 14 14 14 14 14 14 14 14 14 14 14 14 14 14 14 14 14 15 14 14 14 14 14 14 13
17 16 16 16 16 16 16 16 16 15 15 15 15 15 15 15 14 14 14 14 14 14 14 14 14 14 14 14 14 13 13 14 14 14 14 15 15 14 14 13 13 13 13
17 16 16 16 16 16 16 15 15 15 15 15 15 15 15 14 14 14 14 14 14 14 14 14 14 14 14 14 13 13 13 13 13 13 14 14 14 14 14 13 13 13 13
16 16 16 16 16 16 16 15 15 15 15 15 15 15 15 14 14 14 14 14 14 14 14 14 14 14 14 13 13 13 13 13 13 13 13 13 13 14 14 14 13 13 13
16 16 16 15 15 15 15 15 15 15 15 15 15 15 14 14 14 14 14 14 14 14 14 13 13 13 13 13 13 13 13 13 13 13 13 13 13 13 14 14 13 13 13
16 16 15 15 15 15 15 15 15 15 15 15 15 14 14 14 14 14 14 13 13 13 13 13 13 13 13 13 13 13 13 13 13 13 13 13 13 13 13 13 13 13 13
16 15 15 15 15 15 15 15 15 15 14 14 14 14 14 14 14 14 13 13 13 13 13 13 13 13 13 13 13 13 13 13 13 13 13 13 13 13 13 13 13 13 13
16 15 15 15 15 15 15 14 14 14 14 14 14 14 14 14 14 13 13 13 13 13 13 13 13 13 13 13 13 13 13 13 13 13 12 12 12 12 12 12 12 13 13
16 15 15 15 15 15 15 14 14 14 14 14 14 14 14 14 14 13 13 13 13 13 13 13 13 13 13 13 12 12 12 12 12 12 12 12 12 12 12 12 12 12 12
16 15 15 15 14 15 14 14 14 14 14 14 14 14 14 14 13 13 13 13 13 13 13 13 13 12 12 12 12 12 12 12 12 12 12 12 12 12 12 12 12 12 12
15 15 15 14 14 14 14 14 14 14 14 14 14 14 13 13 13 13 13 13 13 13 13 13 12 12 12 12 12 12 12 12 12 12 12 12 12 12 12 11 11 11 11
15 15 14 14 14 14 14 14 14 14 14 14 13 13 13 13 13 13 13 13 13 13 12 12 12 12 12 12 12 12 12 12 12 12 12 11 11 11 11 11 11 11 11
15 15 14 14 14 14 14 14 14 13 13 13 13 13 13 13 13 12 12 12 12 12 12 12 12 12 12 11 11 11 11 11 11 11 11 11 11 11 11 11 11 11 11
15 14 14 14 14 13 13 13 13 13 13 13 13 13 13 12 12 12 12 12 12 12 12 12 12 12 11 11 11 11 11 11 11 11 11 11 11 11 11 11 11 11 10
14 14 14 14 13 13 13 13 13 12 12 12 13 13 12 12 12 12 12 12 12 11 11 11 11 11 11 11 11 11 11 10 10 10 10 10 10 10 11 11 11 10 10
14 14 13 13 13 13 13 12 12 12 12 12 12 12 12 12 11 11 11 11 11 11 11 11 11 11 11 11 11 11 10 10 10 10 10 10 10 10 10 10 10 10 10
13 13 13 13 12 12 12 12 12 12 12 11 11 11 11 11 11 11 11 11 11 11 10 10 10 10 10 10 10 10 10 10 10 10 10 10 10 10 10 9 9 10 10
13 12 12 12 12 12 12 12 11 11 11 11 11 11 11 11 11 10 10 10 10 10 10 10 10 10 10 10 10 10 9 9 9 9 9 9 9 9 9 9 9 9 9
12 12 12 12 11 11 11 11 11 11 11 10 10 10 10 10 10 10 10 10 10 9 9 9 9 9 9 9 9 9 9 9 9 9 9 9 9 9 9 9 9 9 9
12 11 11 11 11 11 11 11 11 10 10 10 10 10 10 10 10 10 10 9 9 9 9 9 9 9 9 9 9 9 9 8 8 8 8 8 9 9 9 9 8 8 9
11 11 11 11 10 10 10 10 10 10 10 10 10 10 9 9 9 9 9 9 9 9 8 8 8 8 8 8 8 8 8 8 8 8 8 8 8 8 8 8 8 8 8
11 10 10 10 10 10 10 10 10 9 9 9 9 9 9 9 9 9 9 8 8 8 8 8 7 7 7 8 8 8 8 8 7 7 7 7 7 8 8 8 8 8 8
10 10 10 9 9 9 9 9 9 9 9 8 8 8 8 8 8 8 8 8 8 8 7 7 7 7 7 7 7 7 7 7 7 7 7 7 7 7 7 7 7 7 7
9 9 9 9 9 9 9 9 8 8 8 8 8 8 7 8 8 8 8 7 7 7 7 7 7 6 6 6 6 6 6 6 6 6 6 6 6 6 6 6 6 6 6
9 9 9 8 8 8 8 8 8 8 7 7 7 7 7 7 7 7 7 7 7 7 7 7 6 6 6 6 6 6 6 6 6 5 5 5 5 5 5 5 5 5 5
Wind_Speed
2 2 2 2 3 2 2 2 3 3 3 3 2 2 2 2 2 1 1 1 2 2 2 2 2 2 2 2 2 2 2 2 2 2 2 2 2 3 2 2 2 3 3
2 2 2 2 2 3 2 2 2 2 2 2 2 2 2 2 2 2 2 2 2 2 2 3 3 3 2 2 2 2 1 1 1 1 1 1 2 2 2 2 1 2 2
3 3 2 2 2 2 2 2 2 2 2 2 2 2 2 2 3 3 2 2 2 2 2 2 3 3 3 2 2 2 2 1 1 1 2 1 0 1 2 1 1 2 1
3 3 3 2 2 1 1 2 3 2 2 3 2 3 3 3 2 2 2 3 3 3 3 3 3 3 2 3 3 3 3 3 2 1 1 2 2 2 1 2 1 1 1
3 3 3 2 1 1 1 2 2 2 2 2 2 3 3 2 2 2 2 3 3 3 3 3 3 3 2 3 3 3 3 3 3 2 1 2 2 3 2 2 2 1 0
3 3 2 2 1 1 1 1 2 2 2 2 3 3 3 3 3 3 3 3 3 2 3 3 3 3 3 3 3 3 4 3 3 3 3 3 3 2 2 3 2 1 1
3 3 3 2 1 1 1 1 2 3 3 3 3 3 4 4 4 4 3 3 3 2 2 3 3 3 3 3 3 3 3 3 3 3 3 3 3 3 3 2 2 2 2
3 3 3 2 2 2 2 2 2 3 3 3 3 3 3 3 3 4 3 3 3 2 2 3 3 3 3 3 3 3 3 3 3 3 3 3 3 3 3 3 2 3 2
4 4 4 3 2 2 2 2 3 2 2 3 3 3 3 3 3 4 4 3 3 2 3 3 3 3 3 4 4 3 4 4 4 4 4 3 3 3 3 3 3 3 3
4 4 4 4 3 2 2 2 2 2 2 2 2 2 3 4 3 3 4 4 4 3 4 4 4 4 4 4 4 4 4 5 4 3 4 4 3 2 2 3 3 3 3
4 4 4 4 3 2 2 2 2 2 1 2 2 2 3 3 3 3 4 4 4 4 5 5 4 4 4 4 4 4 5 5 5 5 5 5 4 3 3 3 3 3 3
3 4 3 3 3 3 2 2 2 2 2 2 2 2 2 2 2 3 3 3 3 4 4 4 4 4 4 4 4 4 5 5 5 5 5 5 4 4 3 3 3 3 4
2 3 3 3 3 3 3 3 3 3 2 2 2 2 2 2 3 2 2 2 2 3 3 3 4 4 4 4 5 5 5 5 5 5 5 6 5 5 4 4 4 4 4
2 2 3 3 3 3 3 3 3 3 3 2 2 2 2 3 3 3 3 2 2 2 2 2 3 4 4 4 4 4 5 5 5 4 5 5 5 5 5 4 5 4 4
1 2 3 2 2 3 3 3 3 3 3 3 3 3 2 3 3 3 2 2 2 2 1 2 2 2 2 2 3 4 5 5 5 5 4 4 3 3 3 4 5 5 5
2 2 2 2 2 2 2 3 4 4 4 4 3 3 2 2 3 3 2 1 1 2 2 2 1 1 1 1 2 4 5 5 5 5 5 4 5 4 4 4 4 5 6
2 2 2 2 2 2 2 2 3 3 3 3 3 3 3 2 3 3 2 2 2 2 2 2 2 2 1 1 1 3 4 5 5 5 4 4 4 5 6 6 7 7 7
1 1 1 1 1 1 1 1 2 2 2 2 2 2 2 2 2 3 3 3 3 2 3 2 2 2 1 1 2 4 5 4 5 5 5 5 5 4 5 6 6 7 8
2 1 1 1 1 0 0 1 1 1 1 1 2 2 2 2 2 3 3 3 3 3 3 3 3 3 2 1 1 4 4 4 5 5 5 5 6 3 4 6 6 6 6
1 1 0 0 1 1 1 1 1 1 1 2 2 2 2 2 3 3 3 2 2 3 3 2 3 3 3 1 1 4 4 4 4 4 4 3 4 3 4 6 7 8 7
1 0 1 1 1 1 1 1 1 2 2 2 1 1 2 2 3 3 2 2 2 2 3 3 3 3 2 1 1 2 3 4 4 4 4 3 3 3 4 6 7 7 6
1 1 1 1 1 1 2 2 2 2 2 1 1 1 1 1 2 2 2 3 3 3 3 3 3 3 2 2 1 2 4 5 4 4 4 2 2 4 5 5 5 4 5
2 2 2 2 2 2 2 3 2 2 2 1 2 2 2 2 2 2 3 3 3 3 3 3 3 3 2 1 1 3 4 4 4 4 3 3 2 4 5 5 5 5 5
2 2 2 2 2 2 3 3 2 2 2 2 3 3 2 2 2 2 2 3 3 3 3 4 4 3 3 2 2 3 3 4 5 5 3 4 4 5 4 4 5 5 5
2 2 2 2 2 2 3 2 2 2 2 3 3 3 3 3 2 2 2 3 3 3 4 4 4 4 4 2 1 3 3 3 3 4 4 4 3 3 4 4 4 4 5
2 2 2 3 3 3 3 3 2 3 3 3 3 3 3 3 3 3 2 1 3 2 3 3 4 4 3 2 2 3 4 4 4 3 4 4 4 4 4 4 4 4 4
Wind_Direction
157 140 145 157 182 183 191 193 195 184 181 183 183 183 172 156 141 134 152 172 179 170 157 167 161 160 155 158 157 140 135 137 142 137 116 109 94 78 78 63 60 75 67
168 153 154 153 164 180 183 191 198 188 187 191 192 196 174 157 143 145 140 158 175 171 172 180 171 160 156 173 172 166 187 157 206 246 215 172 152 112 89 86 72 72 77
205 176 167 162 167 174 186 193 192 184 185 187 184 179 165 170 166 165 162 158 166 171 176 180 181 176 178 178 190 197 212 216 211 284 295 278 284 136 138 97 95 75 64
203 190 178 171 180 191 195 205 194 180 175 184 192 198 194 189 179 164 161 168 173 177 181 184 190 188 193 191 199 206 219 226 227 222 296 308 315 263 178 161 129 93 53
193 191 187 186 189 177 185 203 188 173 170 182 178 195 197 190 165 158 174 187 180 183 185 198 199 196 198 202 208 218 223 227 240 244 246 256 253 260 253 221 187 161 93
179 180 175 164 154 134 155 180 184 177 177 178 184 191 197 193 182 179 187 200 187 187 188 199 201 202 202 206 207 215 219 232 232 242 244 249 255 247 246 251 226 214 202
174 170 166 157 151 148 161 171 183 195 194 191 188 197 204 206 204 199 203 206 199 198 195 199 204 205 206 209 210 215 224 228 230 238 249 255 264 263 257 249 247 244 229
173 174 174 172 172 170 165 172 193 208 202 202 197 203 202 216 219 214 213 216 219 213 209 210 209 211 211 214 216 227 228 235 233 237 239 249 257 249 244 246 243 242 233
180 182 180 179 179 180 183 190 197 209 210 216 212 209 211 216 223 226 225 224 228 226 219 214 214 210 211 218 221 228 233 237 239 239 235 243 250 237 241 234 241 253 251
190 189 183 183 184 185 191 192 198 202 209 219 223 217 222 223 228 231 228 229 229 229 229 224 231 223 220 222 225 232 235 236 234 240 242 240 238 226 233 246 248 248 254
188 187 186 188 184 174 182 188 194 198 214 224 236 237 224 226 229 236 242 243 238 232 232 228 232 231 229 227 224 231 233 236 237 233 234 234 232 222 223 232 241 247 241
188 184 179 178 182 187 198 202 205 215 223 232 248 256 240 220 227 235 242 248 245 235 230 229 228 227 230 228 230 234 236 236 238 237 233 231 220 220 223 225 231 235 240
178 182 177 183 196 203 209 212 218 228 232 230 243 259 259 248 243 243 239 236 236 234 226 221 221 222 226 222 223 226 231 237 240 237 235 232 219 218 219 221 230 231 230
185 186 190 197 206 214 216 218 222 227 233 234 241 250 265 269 263 253 236 227 226 226 224 219 220 222 225 225 228 230 233 234 235 237 237 235 225 224 224 222 229 228 223
224 219 215 217 218 224 228 227 227 229 230 236 243 251 262 269 264 255 240 218 214 225 235 229 220 214 226 243 254 242 239 236 233 231 232 234 237 256 243 234 230 225 224
243 235 225 223 225 229 234 236 234 236 238 242 246 249 250 254 258 250 243 227 207 214 219 218 225 219 229 44 308 269 242 237 233 230 229 232 226 221 224 238 246 242 230
263 249 244 240 236 238 237 239 238 238 243 251 258 256 244 232 238 238 233 226 217 214 220 224 224 237 230 113 248 267 258 242 237 237 235 233 233 236 235 223 223 233 239
287 276 269 267 286 284 257 241 226 229 237 252 266 267 251 241 237 230 231 233 234 225 230 235 241 244 237 109 244 256 250 254 249 244 244 241 242 238 250 245 236 235 233
287 273 293 288 271 283 273 212 194 209 238 264 266 260 245 233 230 225 228 235 237 241 243 242 245 251 239 164 261 260 246 249 254 252 248 250 246 232 248 247 243 241 240
300 303 279 324 279 280 272 223 212 231 262 267 265 259 245 231 227 227 228 233 230 238 242 243 246 250 263 112 261 275 249 251 254 254 250 245 254 254 236 242 244 244 246
278 232 224 262 285 269 255 249 260 268 278 275 275 268 246 236 232 231 224 216 218 225 236 243 247 252 268 242 229 277 263 262 259 256 252 246 215 246 248 251 252 255 259
233 225 242 271 288 270 245 247 270 293 306 287 281 277 272 258 231 221 223 218 215 226 240 250 253 255 252 267 253 264 277 291 265 261 263 261 213 236 243 246 255 258 259
236 239 246 264 279 280 263 261 275 293 293 283 267 271 269 266 252 233 226 223 221 230 242 248 252 254 254 244 237 244 254 267 268 270 300 306 264 247 239 233 246 241 241
250 247 247 254 269 284 285 281 282 281 279 282 273 267 268 271 254 235 231 230 229 232 238 244 252 255 252 259 264 259 248 237 251 261 248 233 236 238 252 246 235 241 247
255 256 257 271 287 294 295 297 288 271 269 270 276 265 265 258 249 239 237 238 240 244 247 251 254 257 256 270 309 287 282 283 283 284 269 262 257 253 253 250 246 245 244
257 272 286 297 299 298 297 298 283 267 265 268 271 271 256 250 244 241 245 221 232 219 236 260 267 265 276 298 254 255 276 292 294 269 257 258 260 263 264 259 252 247 246
Height
1530 1531 1531 1532 1533 1534 1534 1535 1535 1536 1536 1537 1537 1537 1537 1537 1538 1538 1539 1540 1540 1541 1541 1542 1543 1543 1543 1544 1544 1544 1544 1544 1544 1545 1545 1545 1544 1544 1544 1543 1543 1543 1542
1529 1530 1530 1531 1532 1533 1533 1534 1534 1535 1535 1535 1536 1536 1536 1536 1537 1537 1538 1538 1539 1540 1541 1542 1542 1542 1542 1543 1543 1543 1544 1544 1544 1545 1545 1545 1546 1544 1544 1543 1543 1543 1542
1528 1528 1529 1530 1531 1531 1532 1532 1533 1534 1534 1534 1534 1535 1535 1535 1536 1536 1537 1537 1538 1539 1540 1541 1541 1541 1542 1542 1542 1543 1543 1543 1544 1544 1545 1544 1544 1544 1544 1543 1543 1542 1542
1526 1527 1528 1529 1529 1530 1531 1531 1532 1533 1533 1533 1533 1534 1534 1535 1535 1536 1536 1536 1537 1538 1538 1539 1540 1540 1541 1541 1542 1542 1542 1542 1543 1543 1543 1544 1543 1544 1543 1543 1543 1542 1541
1525 1526 1527 1528 1528 1529 1529 1530 1531 1531 1531 1532 1532 1532 1533 1534 1534 1534 1535 1535 1536 1536 1537 1538 1538 1539 1539 1540 1540 1540 1541 1541 1542 1542 1542 1542 1542 1542 1542 1542 1542 1542 1541
1524 1525 1526 1527 1527 1528 1528 1529 1529 1530 1530 1531 1531 1531 1532 1532 1533 1533 1534 1534 1534 1535 1535 1536 1536 1537 1538 1538 1539 1539 1539 1540 1540 1540 1540 1541 1541 1541 1541 1541 1540 1540 1540
1522 1524 1525 1525 1526 1526 1527 1528 1528 1529 1529 1530 1530 1530 1531 1531 1532 1532 1533 1533 1533 1533 1534 1534 1535 1536 1536 1537 1537 1538 1538 1538 1538 1538 1539 1539 1539 1539 1539 1539 1539 1539 1539
1521 1522 1523 1524 1525 1525 1526 1526 1527 1527 1528 1528 1529 1529 1529 1530 1530 1531 1531 1532 1532 1532 1532 1533 1533 1534 1534 1535 1535 1536 1536 1536 1536 1536 1536 1536 1537 1537 1537 1537 1538 1537 1537
1520 1521 1522 1523 1524 1524 1525 1525 1526 1526 1526 1527 1527 1528 1528 1528 1529 1529 1530 1530 1530 1530 1531 1531 1532 1532 1532 1533 1533 1533 1533 1534 1534 1534 1534 1534 1535 1535 1535 1535 1536 1536 1536
1519 1520 1521 1522 1523 1523 1524 1525 1525 1525 1525 1526 1526 1526 1526 1527 1527 1527 1527 1528 1528 1528 1528 1529 1529 1530 1530 1530 1531 1531 1531 1531 1531 1532 1532 1532 1532 1532 1532 1533 1533 1533 1534
1518 1519 1520 1521 1521 1522 1523 1523 1523 1524 1524 1524 1524 1524 1524 1525 1525 1525 1525 1525 1525 1526 1526 1526 1527 1527 1528 1528 1528 1528 1528 1529 1529 1529 1530 1530 1530 1530 1530 1530 1531 1531 1531
1517 1518 1518 1519 1520 1521 1522 1522 1522 1522 1522 1522 1522 1522 1522 1522 1522 1523 1522 1522 1522 1523 1523 1523 1524 1524 1524 1525 1525 1525 1525 1526 1526 1526 1527 1527 1527 1527 1528 1528 1528 1529 1529
1516 1516 1517 1517 1518 1519 1520 1520 1520 1520 1520 1520 1520 1520 1520 1521 1521 1521 1520 1520 1520 1520 1520 1520 1520 1521 1521 1522 1522 1522 1522 1523 1523 1523 1523 1524 1524 1525 1525 1525 1526 1526 1526
1514 1515 1515 1516 1516 1517 1517 1518 1518 1518 1518 1518 1518 1518 1518 1518 1518 1518 1518 1518 1517 1518 1517 1517 1518 1518 1518 1519 1519 1519 1519 1519 1520 1520 1520 1521 1521 1522 1522 1522 1523 1523 1524
1513 1513 1513 1514 1514 1515 1515 1515 1516 1516 1516 1515 1515 1515 1515 1515 1515 1515 1515 1515 1515 1515 1515 1515 1515 1515 1515 1515 1516 1516 1516 1516 1517 1517 1517 1517 1517 1518 1519 1519 1520 1520 1521
1511 1511 1512 1512 1512 1513 1513 1513 1513 1513 1513 1513 1513 1512 1512 1512 1512 1513 1513 1512 1512 1512 1512 1512 1512 1512 1512 1511 1512 1513 1513 1513 1513 1513 1514 1514 1514 1514 1515 1515 1516 1517 1517
1510 1510 1510 1510 1511 1511 1511 1510 1510 1511 1510 1510 1510 1510 1509 1509 1509 1510 1510 1510 1509 1509 1510 1510 1510 1509 1509 1509 1509 1509 1510 1510 1510 1510 1510 1510 1510 1510 1511 1511 1512 1512 1513
1508 1508 1508 1508 1508 1508 1509 1509 1508 1508 1508 1507 1507 1507 1506 1506 1506 1506 1507 1507 1507 1507 1507 1507 1507 1506 1506 1506 1505 1506 1506 1506 1506 1506 1507 1507 1507 1507 1507 1508 1508 1508 1509
1506 1506 1506 1506 1506 1506 1506 1506 1506 1506 1505 1505 1504 1504 1503 1503 1503 1503 1503 1503 1504 1504 1504 1504 1503 1503 1503 1502 1502 1502 1502 1502 1502 1502 1502 1503 1503 1503 1504 1504 1504 1505 1505
1504 1504 1504 1504 1504 1504 1504 1504 1504 1503 1502 1502 1501 1501 1500 1500 1500 1500 1500 1500 1500 1500 1501 1500 1500 1500 1500 1499 1499 1499 1499 1499 1499 1498 1498 1498 1499 1499 1499 1500 1500 1500 1500
1502 1501 1501 1501 1501 1501 1501 1501 1501 1501 1500 1500 1499 1498 1497 1497 1497 1497 1497 1497 1497 1497 1497 1497 1497 1497 1496 1496 1495 1495 1495 1495 1495 1495 1494 1494 1494 1494 1495 1495 1495 1495 1496
1499 1499 1499 1499 1499 1499 1499 1498 1498 1498 1497 1497 1496 1495 1495 1494 1494 1494 1494 1494 1494 1494 1494 1494 1493 1493 1493 1492 1492 1492 1492 1492 1491 1491 1491 1490 1489 1489 1490 1490 1490 1490 1491
1496 1497 1497 1496 1496 1496 1496 1496 1495 1495 1494 1493 1493 1493 1492 1492 1491 1491 1491 1491 1491 1490 1490 1490 1490 1490 1489 1489 1489 1488 1488 1488 1487 1487 1487 1486 1485 1485 1485 1485 1485 1486 1486
1494 1494 1494 1494 1493 1493 1493 1493 1492 1491 1491 1490 1490 1490 1489 1489 1489 1488 1488 1488 1488 1487 1487 1487 1487 1487 1486 1486 1485 1485 1485 1484 1484 1484 1483 1482 1482 1482 1481 1481 1481 1481 1482
1492 1491 1491 1491 1491 1491 1490 1490 1489 1488 1488 1487 1486 1486 1486 1485 1485 1485 1485 1485 1485 1485 1485 1484 1484 1483 1483 1483 1482 1482 1481 1481 1480 1480 1479 1479 1479 1478 1478 1477 1477 1477 1477
1489 1489 1489 1489 1488 1488 1487 1486 1486 1485 1485 1484 1483 1483 1482 1482 1482 1481 1481 1481 1481 1481 1481 1480 1480 1480 1480 1479 1478 1478 1478 1477 1476 1476 1475 1475 1474 1474 1474 1473 1473 1472 1472